Enua Airport


Codes: NCAT/AIU
Name: Enua Airport
City: Atiu Island
Country: Cook Islands
Elevation: 36 ft.
Wikipedia:

Photos at Enua Airport


   Photos courtesy of SpottingLog. You can add your own sightings and photos by signing up for a free trial today.



No photos found.

Weather at Enua Airport


Time (UTC)DescriptionTempratureWindCloud coverageVisibilityPressureHumidity
26-Jun-2024 00:00Broken Clouds23°C20 mph, 65%10000m1018hPa67%
26-Jun-2024 03:00Broken Clouds23°C20 mph, E67%10000m1018hPa67%
26-Jun-2024 06:00Light Rain23°C22 mph, E77%10000m1019hPa69%
26-Jun-2024 09:00Light Rain23°C25 mph, E87%10000m1020hPa70%
26-Jun-2024 12:00Light Rain23°C22 mph, E69%10000m1019hPa72%
26-Jun-2024 15:00Light Rain23°C20 mph, E39%10000m1018hPa72%
26-Jun-2024 18:00Light Rain24°C20 mph, E49%10000m1020hPa73%
26-Jun-2024 21:00Clear Sky24°C20 mph, E5%10000m1020hPa76%
27-Jun-2024 00:00Light Rain24°C20 mph, E7%10000m1019hPa78%
27-Jun-2024 03:00Light Rain24°C20 mph, E22%10000m1018hPa79%
27-Jun-2024 06:00Light Rain25°C22 mph, E20%10000m1020hPa80%
27-Jun-2024 09:00Light Rain25°C22 mph, E59%10000m1020hPa81%
27-Jun-2024 12:00Light Rain24°C22 mph, E37%10000m1019hPa82%
27-Jun-2024 15:00Light Rain25°C22 mph, E24%10000m1019hPa81%
27-Jun-2024 18:00Few Clouds25°C22 mph, E19%10000m1020hPa82%
27-Jun-2024 21:00Light Rain25°C22 mph, E12%10000m1021hPa83%
28-Jun-2024 00:00Few Clouds25°C20 mph, E11%10000m1019hPa83%
28-Jun-2024 03:00Clear Sky25°C20 mph, E2%10000m1018hPa84%
28-Jun-2024 06:00Light Rain25°C20 mph, E7%10000m1020hPa85%
28-Jun-2024 09:00Light Rain25°C22 mph, E8%10000m1020hPa86%
28-Jun-2024 12:00Clear Sky25°C22 mph, E10%10000m1019hPa86%
28-Jun-2024 15:00Light Rain25°C20 mph, E35%10000m1019hPa85%
28-Jun-2024 18:00Few Clouds25°C20 mph, E21%10000m1020hPa86%
28-Jun-2024 21:00Light Rain25°C20 mph, E1%10000m1020hPa87%
29-Jun-2024 00:00Clear Sky25°C20 mph, E0%10000m1018hPa86%
29-Jun-2024 03:00Clear Sky25°C20 mph, E0%10000m1017hPa87%
29-Jun-2024 06:00Clear Sky25°C20 mph, E2%10000m1019hPa86%
29-Jun-2024 09:00Few Clouds25°C22 mph, E24%10000m1019hPa86%
29-Jun-2024 12:00Scattered Clouds25°C22 mph, E46%10000m1018hPa84%
29-Jun-2024 15:00Broken Clouds25°C22 mph, E55%10000m1017hPa83%
29-Jun-2024 18:00Light Rain25°C22 mph, E78%10000m1018hPa82%
29-Jun-2024 21:00Light Rain25°C22 mph, E93%10000m1018hPa82%
30-Jun-2024 00:00Overcast Clouds25°C20 mph, E96%10000m1016hPa84%
30-Jun-2024 03:00Broken Clouds25°C20 mph, E69%10000m1016hPa83%
30-Jun-2024 06:00Broken Clouds25°C20 mph, E83%10000m1017hPa84%
30-Jun-2024 09:00Overcast Clouds25°C20 mph, E90%10000m1018hPa86%
30-Jun-2024 12:00Light Rain25°C20 mph, E94%10000m1017hPa83%
30-Jun-2024 15:00Overcast Clouds25°C18 mph, E87%10000m1017hPa83%
30-Jun-2024 18:00Broken Clouds25°C20 mph, E74%10000m1018hPa85%
30-Jun-2024 21:00Broken Clouds25°C18 mph, E71%10000m1019hPa86%